TIME,DELAY(SENSOR),PRES,OXYGEN,RAWTEMP,T(OPTODE),TCPHASE,FLUOR,BETA(BETA700),BETA(BETA412),BETA(BETA440),CDOM,C(CSC),ED(ED412.40),ED(ED444.00),ED(ED489.70),ED(ED554.30),LU(LU411.80),LU(LU443.40),LU(LU489.60),LU(LU554.10),COMP,TILTX,TILTY,CHECK
1371095446,5809,876.8499755859375000,48.6596183776855500,668.0031738281250000,4.3641381263732910,53.8342208862304700,53,100,86,79,79,14849,2147755657,2147426093,2148008758,2147875200,2147642614,2147054262,2148258806,2147196278,48,4,13,62048
1371099042,5810,938.1400146484375000,50.9120597839355500,676.1842041015625000,4.0936927795410160,53.6213493347168000,53,99,85,78,79,14852,2147755273,2147424740,2148012516,2147872420,2147640027,2147049444,2148262884,2147194459,2894,4,13,28919
1371102642,5807,966.3400268554688000,51.2623214721679700,677.1124267578125000,4.0629601478576660,53.5863609313964840,53,103,88,78,79,14850,2147755776,2147426249,2148011126,2147875867,2147643145,2147054939,2148257792,2147194258,3168,4,13,48975
1371106242,5812,1000.5499877929688000,51.3572998046875000,677.5944213867188000,4.0469989776611330,53.5782585144043000,53,98,87,78,80,14850,2147757568,2147425526,2148011593,2147873810,2147641353,2147052598,2148258843,2147196891,3230,4,13,56948
1371109842,5808,1010.4899902343750000,50.8136596679687500,676.6029052734375000,4.0798320770263670,53.6402206420898440,52,99,84,78,79,14847,2147756672,2147430866,2148013686,2147872685,2147642221,2147049289,2148259209,2147194368,454,4,13,18877
1371113442,5805,999.5100097656250000,50.8150901794433600,677.0267944335938000,4.0657939910888670,53.6455116271972660,52,101,85,79,81,14848,2147757110,2147429101,2148012507,2147872000,2147642322,2147055488,2148260854,2147194971,3313,4,13,32552
1371117042,5808,1003.4899902343750000,51.3233909606933600,677.7177124023438000,4.0429148674011230,53.5889701843261700,52,100,85,79,79,14849,2147758363,2147427721,2148010550,2147875236,2147642276,2147048722,2148257956,2147195922,103,4,13,54155
1371120642,5807,1008.2000122070312000,51.8867683410644500,677.9207763671875000,4.0361838340759280,53.5103416442871100,52,98,86,78,79,14848,2147755547,2147427209,2148013924,2147875181,2147641947,2147052059,2148260022,2147192320,3371,4,13,29389
1371124242,5809,998.4099731445312000,53.4664611816406250,678.0938720703125000,4.0304508209228520,53.3009490966796900,52,97,85,79,80,14851,2147754578,2147429028,2148011254,2147878985,2147644141,2147049682,2148258523,2147194614,3503,4,13,47445
1371127842,5811,995.9500122070312000,55.4005088806152340,678.5068969726562000,4.0167689323425290,53.0526008605957000,51,97,88,79,80,14851,2147755977,2147430116,2148012498,2147873216,2147644946,2147049536,2148255332,2147192064,251,4,13,41958
1371131442,5811,994.6300048828125000,56.4259796142578100,679.0689697265625000,3.9981460571289062,52.9259910583496100,52,98,84,79,79,14849,2147757522,2147431734,2148013869,2147872118,2147641325,2147055917,2148259520,2147195291,79,4,13,1683
1371135042,5808,1002.9000244140625000,56.3393592834472660,678.3944702148438000,4.0204939842224120,52.9297904968261700,52,97,89,78,81,14850,2147752941,2147429942,2148011913,2147873408,2147644489,2147053248,2148256557,2147192118,122,4,13,8508
1371138642,5805,1019.5399780273438000,55.0424613952636700,677.9611816406250000,4.0348491668701170,53.0924606323242200,53,99,85,80,80,14849,2147757897,2147426029,2148014985,2147872539,2147643684,2147055049,2148258276,2147194486,3295,4,13,19766
1371142242,5809,1008.6400146484375000,54.7003402709960940,678.0009155273438000,4.0335330963134770,53.1358909606933600,51,98,85,79,79,14850,2147754304,2147423853,2148010258,2147874349,2147645174,2147050048,2148258953,2147192786,94,4,13,29249
1371145842,5805,1009.5800170898438000,55.2383117675781250,677.6090087890625000,4.0465149879455570,53.0638885498046900,52,97,86,79,79,14845,2147756489,2147424402,2148007771,2147873673,2147640832,2147054125,2148261824,2147193856,252,4,13,15363
1371149442,5811,1007.6400146484375000,55.4979591369628900,677.6217041015625000,4.0460929870605470,53.0289688110351560,53,97,87,79,79,14842,2147756571,2147425005,2148012096,2147874130,2147642057,2147052900,2148263396,2147196370,33,4,13,29731
1371153042,5807,1007.6199951171875000,55.3049011230468750,677.5610961914062000,4.0480999946594240,53.0553016662597660,52,98,83,78,80,14847,2147760768,2147428690,2148010102,2147873901,2147639195,2147051675,2148262976,2147195437,310,4,13,15544
1371156642,5807,1014.0399780273438000,55.8606109619140600,677.6096801757812000,4.0464920997619630,52.9767112731933600,53,98,85,79,79,14843,2147756425,2147426532,2148010340,2147877769,2147642688,2147054354,2148255414,2147195373,761,4,13,13640
1371160242,5808,1010.3300170898438000,52.8990402221679700,678.0042114257812000,4.0334258079528810,53.3751106262207000,52,98,80,78,80,14844,2147755044,2147427090,2148010368,2147877010,2147643812,2147056246,2148261632,2147195995,226,4,13,7104
1371163842,5806,1004.4899902343750000,55.1209716796875000,678.1558837890625000,4.0283989906311035,53.0871696472168000,52,98,84,79,79,14841,2147755437,2147426285,2148012562,2147878966,2147642642,2147054134,2148258139,2147196233,3471,4,13,20028
1371167442,5808,1005.5300292968750000,55.4957695007324200,678.5653076171875000,4.0148348808288570,53.0406608581543000,53,99,86,78,80,14845,2147756324,2147426505,2148008914,2147874605,2147644480,2147056420,2148261037,2147191222,12,4,13,57157
1371171042,5808,1000.9899902343750000,55.7705612182617200,680.2448730468750000,3.9591689109802246,53.0296592712402340,52,98,86,80,80,14843,2147759744,2147426249,2148011428,2147877010,2147641929,2147050715,2148263168,2147195163,205,4,13,1836
1371174642,5811,1004.6099853515625000,55.5619010925293000,680.7642211914062000,3.9419560432434080,53.0631790161132800,52,97,84,78,80,14843,2147756589,2147427062,2148012388,2147875913,2147642925,2147058294,2148259757,2147194770,381,4,13,34559
1371178242,5810,1008.8599853515625000,56.0178604125976560,680.1683959960938000,3.9617080688476562,52.9915390014648440,51,98,88,79,81,14844,2147757814,2147425682,2148012187,2147875309,2147642240,2147055515,2148259986,2147194038,96,4,13,43637
1371181842,5808,1006.5100097656250000,55.7596588134765600,679.1190185546875000,3.9964900016784670,53.0140686035156250,52,97,88,78,79,14842,2147756973,2147427355,2148008429,2147878820,2147642038,2147057115,2148263305,2147194358,21,4,13,24281
1371185442,5808,1011.3699951171875000,56.0566291809082000,678.4979248046875000,4.0170688629150390,52.9694519042968750,52,97,83,80,79,14812,2147757558,2147426870,2148012086,2147878765,2147638966,2147053686,2148265947,2147198098,3368,4,13,41954
1371189042,5809,1009.4000244140625000,55.7558593750000000,679.5767822265625000,3.9813160896301270,53.0208892822265600,52,97,86,78,80,14833,2147760393,2147425142,2148010605,2147877494,2147641590,2147055149,2148260507,2147194230,525,4,13,42569
1371192642,5808,1020.5499877929688000,56.0394401550293000,678.1575927734375000,4.0283408164978030,52.9638099670410160,52,97,85,79,80,14840,2147757824,2147424137,2148011529,2147875428,2147641398,2147051108,2148262061,2147195072,460,4,13,4035
1371196242,5811,1015.2899780273438000,54.2908782958984400,678.0502929687500000,4.0318970680236820,53.1965408325195300,52,99,88,78,80,14841,2147757101,2147428864,2148010130,2147873380,2147643757,2147053586,2148258806,2147197193,3419,4,13,17800
1371199842,5810,1019.0399780273438000,51.1967201232910160,678.1544189453125000,4.0284481048583980,53.6128501892089840,52,97,88,78,80,14838,2147753042,2147426240,2148008493,2147875501,2147641216,2147052416,2148259721,2147195840,3189,4,13,42545
1371203442,5806,1030.4100341796875000,53.7438087463378900,678.1427001953125000,4.0288348197937010,53.2677497863769500,52,103,85,80,79,14829,2147760438,2147426048,2148011986,2147875821,2147640301,2147050496,2148263542,2147199396,148,4,13,2913
1371207042,5808,1019.8099975585938000,50.3331108093261700,677.8723144531250000,4.0377941131591800,53.7224884033203100,52,98,86,79,79,14824,2147758701,2147424621,2148008530,2147873014,2147643062,2147047094,2148262052,2147198619,645,4,13,52001
1371210642,5809,1010.0800170898438000,53.1551704406738300,677.9348144531250000,4.0357251167297360,53.3459510803222660,52,97,84,77,79,14830,2147756498,2147425453,2148008630,2147876644,2147642240,2147055744,2148258075,2147196653,110,4,13,16946
1371214242,5812,1004.7700195312500000,55.5783996582031250,678.9995117187500000,4.0004482269287110,53.0388793945312500,51,96,82,79,79,14830,2147757403,2147425792,2148012013,2147877028,2147640137,2147048777,2148257636,2147197083,3198,4,13,55152
1371217842,5808,1009.6400146484375000,56.2814483642578100,679.5366821289062000,3.9826469421386720,52.9490509033203100,52,99,87,78,80,14832,2147756955,2147428269,2148011922,2147876507,2147643922,2147045266,2148255899,2147195995,3016,4,13,20709
1371221442,5811,1011.8400268554688000,56.1482009887695300,679.2932739257812000,3.9907128810882570,52.9660987854003900,53,95,85,79,78,14830,2147757266,2147428918,2148012708,2147874148,2147643364,2147052269,2148261723,2147192722,51,4,13,54173
1371225042,5811,1013.5200195312500000,55.9478797912597660,679.7584228515625000,3.9752979278564453,52.9986686706543000,51,98,84,78,80,14828,2147753846,2147426468,2148012416,2147877403,2147641453,2147052534,2148261833,2147195282,3223,4,13,55668
1371228642,5810,1016.5900268554688000,56.2789382934570300,679.5087890625000000,3.9835700988769530,52.9523696899414060,51,97,84,78,78,14830,2147756242,2147428224,2148010194,2147872758,2147640484,2147058724,2148260708,2147195648,3055,4,13,52557
1371232242,5808,1013.5800170898438000,55.6175003051757800,678.4907226562500000,4.0173091888427730,53.0220603942871100,52,97,91,79,80,14828,2147757915,2147426203,2148012022,2147875090,2147642569,2147058944,2148261970,2147192073,453,4,13,28761
1371235842,5811,1015.4600219726562000,55.3944282531738300,678.2683715820312000,4.0246720314025880,53.0502891540527340,52,96,88,78,79,14828,2147756525,2147425106,2148012891,2147872676,2147642916,2147051922,2148262427,2147196534,2249,4,13,65518
1371239442,5811,1018.7600097656250000,54.6908607482910160,677.6763916015625000,4.0442810058593750,53.1335716247558600,52,98,86,78,79,14744,2147753819,2147425280,2148010057,2147872146,2147642048,2147054400,2148261833,2147196745,51,4,13,61789
1371240656,5807,1017.9799804687500000,54.7815399169921900,677.8771972656250000,4.0376300811767580,53.1279487609863300,52,97,83,79,79,14807,2147756772,2147426752,2148011977,2147874267,2147644242,2147055716,2148253860,2147194276,3521,4,13,37734
